Time,TemperatureF,DewpointF,PressureIn,WindDirection,WindDirectionDegrees,WindSpeedMPH,WindSpeedGustMPH,Humidity,HourlyPrecipIn,Conditions,Clouds,dailyrainin,SoftwareType,DateUTC
2013-01-03 00:08:00,-10.0,-14.0,30.19,North,360,0.0,-999.0,83,-99.99,,,0.00,weatherlink.com 1.10,2013-01-03 07:08:00,
2013-01-03 00:32:00,-10.1,-15.0,30.19,North,360,0.0,-999.0,80,-99.99,,,0.00,weatherlink.com 1.10,2013-01-03 07:32:00,
2013-01-03 00:40:00,-10.2,-15.0,30.19,North,360,0.0,-999.0,80,-99.99,,,0.00,weatherlink.com 1.10,2013-01-03 07:40:00,
2013-01-03 00:53:00,-10.1,-14.0,30.20,North,360,0.0,-999.0,81,-99.99,,,0.00,weatherlink.com 1.10,2013-01-03 07:53:00,
2013-01-03 01:08:00,-10.3,-15.0,30.20,North,360,0.0,-999.0,80,-99.99,,,0.00,weatherlink.com 1.10,2013-01-03 08:08:00,
2013-01-03 01:24:00,-10.6,-15.0,30.20,North,360,0.0,-999.0,79,-99.99,,,0.00,weatherlink.com 1.10,2013-01-03 08:24:00,
2013-01-03 01:44:00,-10.3,-15.0,30.20,NE,40,0.0,-999.0,81,-99.99,,,0.00,weatherlink.com 1.10,2013-01-03 08:44:00,
2013-01-03 01:53:00,-10.0,-15.0,30.20,NE,40,0.0,-999.0,79,-99.99,,,0.00,weatherlink.com 1.10,2013-01-03 08:53:00,
2013-01-03 02:17:00,-8.2,-14.0,30.20,SSE,150,0.0,-999.0,77,-99.99,,,0.00,weatherlink.com 1.10,2013-01-03 09:17:00,
2013-01-03 02:27:00,-7.4,-14.0,30.21,SSE,150,2.0,-999.0,74,-99.99,,,0.00,weatherlink.com 1.10,2013-01-03 09:27:00,
2013-01-03 02:39:00,-5.1,-12.0,30.21,SSE,163,0.0,-999.0,71,-99.99,,,0.00,weatherlink.com 1.10,2013-01-03 09:39:00,
2013-01-03 02:53:00,-3.7,-12.0,30.21,SW,228,5.0,-999.0,66,-99.99,,,0.00,weatherlink.com 1.10,2013-01-03 09:53:00,
2013-01-03 03:08:00,-3.7,-12.0,30.20,SW,230,0.0,-999.0,66,-99.99,,,0.00,weatherlink.com 1.10,2013-01-03 10:08:00,
2013-01-03 03:24:00,-4.2,-13.0,30.21,SSW,205,0.0,-999.0,66,-99.99,,,0.00,weatherlink.com 1.10,2013-01-03 10:24:00,
2013-01-03 03:40:00,-5.2,-14.0,30.21,SSW,205,0.0,-999.0,65,-99.99,,,0.00,weatherlink.com 1.10,2013-01-03 10:40:00,
2013-01-03 03:56:00,-6.8,-15.0,30.21,SSW,202,0.0,-999.0,69,-99.99,,,0.00,weatherlink.com 1.10,2013-01-03 10:56:00,
2013-01-03 04:12:00,-8.8,-16.0,30.21,SSW,202,0.0,-999.0,70,-99.99,,,0.00,weatherlink.com 1.10,2013-01-03 11:12:00,
2013-01-03 04:24:00,-9.8,-16.0,30.21,SSW,202,0.0,-999.0,73,-99.99,,,0.00,weatherlink.com 1.10,2013-01-03 11:24:00,
2013-01-03 04:38:00,-10.5,-16.0,30.21,SSW,202,0.0,-999.0,75,-99.99,,,0.00,weatherlink.com 1.10,2013-01-03 11:38:00,
2013-01-03 04:53:00,-10.4,-16.0,30.21,SSW,203,0.0,-999.0,76,-99.99,,,0.00,weatherlink.com 1.10,2013-01-03 11:53:00,
2013-01-03 05:09:00,-7.0,-14.0,30.21,SW,222,0.0,-999.0,73,-99.99,,,0.00,weatherlink.com 1.10,2013-01-03 12:09:00,
2013-01-03 05:25:00,-5.7,-14.0,30.21,SW,225,3.0,-999.0,66,-99.99,,,0.00,weatherlink.com 1.10,2013-01-03 12:25:00,
2013-01-03 05:39:00,-5.2,-15.0,30.21,SSW,194,0.0,-999.0,64,-99.99,,,0.00,weatherlink.com 1.10,2013-01-03 12:39:00,
2013-01-03 05:57:00,-5.6,-15.0,30.21,SSW,199,0.0,-999.0,64,-99.99,,,0.00,weatherlink.com 1.10,2013-01-03 12:57:00,
2013-01-03 06:09:00,-5.5,-15.0,30.21,SW,217,1.0,-999.0,65,-99.99,,,0.00,weatherlink.com 1.10,2013-01-03 13:09:00,
2013-01-03 06:23:00,-5.3,-15.0,30.21,SW,234,0.0,-999.0,64,-99.99,,,0.00,weatherlink.com 1.10,2013-01-03 13:23:00,
2013-01-03 06:39:00,-4.9,-15.0,30.21,SW,223,1.0,-999.0,63,-99.99,,,0.00,weatherlink.com 1.10,2013-01-03 13:39:00,
2013-01-03 06:57:00,-5.2,-15.0,30.21,SSW,213,0.0,-999.0,62,-99.99,,,0.00,weatherlink.com 1.10,2013-01-03 13:57:00,
2013-01-03 07:11:00,-7.0,-17.0,30.22,WSW,252,0.0,-999.0,63,-99.99,,,0.00,weatherlink.com 1.10,2013-01-03 14:11:00,
2013-01-03 07:25:00,-8.9,-17.0,30.23,WSW,252,0.0,-999.0,66,-99.99,,,0.00,weatherlink.com 1.10,2013-01-03 14:25:00,
2013-01-03 07:39:00,-11.2,-18.0,30.22,WSW,252,0.0,-999.0,70,-99.99,,,0.00,weatherlink.com 1.10,2013-01-03 14:39:00,
2013-01-03 07:53:00,-12.8,-20.0,30.23,WSW,252,0.0,-999.0,71,-99.99,,,0.00,weatherlink.com 1.10,2013-01-03 14:53:00,
2013-01-03 08:09:00,-14.2,-20.0,30.23,WSW,252,0.0,-999.0,74,-99.99,,,0.00,weatherlink.com 1.10,2013-01-03 15:09:00,
2013-01-03 08:23:00,-15.1,-21.0,30.24,WSW,252,0.0,-999.0,75,-99.99,,,0.00,weatherlink.com 1.10,2013-01-03 15:23:00,
2013-01-03 08:41:00,-15.8,-21.0,30.25,WSW,252,0.0,-999.0,78,-99.99,,,0.00,weatherlink.com 1.10,2013-01-03 15:41:00,
2013-01-03 08:57:00,-15.8,-20.0,30.26,WSW,252,0.0,-999.0,79,-99.99,,,0.00,weatherlink.com 1.10,2013-01-03 15:57:00,
2013-01-03 09:10:00,-15.7,-20.0,30.26,WSW,252,0.0,-999.0,79,-99.99,,,0.00,weatherlink.com 1.10,2013-01-03 16:10:00,
2013-01-03 09:24:00,-15.2,-19.0,30.26,WSW,252,0.0,-999.0,81,-99.99,,,0.00,weatherlink.com 1.10,2013-01-03 16:24:00,
2013-01-03 09:40:00,-11.2,-15.0,30.26,WSW,252,0.0,-999.0,82,-99.99,,,0.00,weatherlink.com 1.10,2013-01-03 16:40:00,
2013-01-03 09:55:00,-7.4,-13.0,30.26,WSW,252,0.0,-999.0,77,-99.99,,,0.00,weatherlink.com 1.10,2013-01-03 16:55:00,
2013-01-03 10:17:00,-1.3,-11.0,30.26,WSW,252,0.0,-999.0,64,-99.99,,,0.00,weatherlink.com 1.10,2013-01-03 17:17:00,
2013-01-03 10:23:00,-0.2,-11.0,30.25,WSW,251,0.0,-999.0,60,-99.99,,,0.00,weatherlink.com 1.10,2013-01-03 17:23:00,
2013-01-03 10:41:00,2.1,-11.0,30.25,WSW,240,0.0,-999.0,54,-99.99,,,0.00,weatherlink.com 1.10,2013-01-03 17:41:00,
2013-01-03 10:57:00,5.1,-10.0,30.24,SSE,163,0.0,-999.0,50,-99.99,,,0.00,weatherlink.com 1.10,2013-01-03 17:57:00,
2013-01-03 11:09:00,7.2,-9.0,30.23,SSE,160,0.0,-999.0,48,-99.99,,,0.00,weatherlink.com 1.10,2013-01-03 18:09:00,
2013-01-03 11:25:00,8.1,-9.0,30.23,SSE,160,0.0,-999.0,45,-99.99,,,0.00,weatherlink.com 1.10,2013-01-03 18:25:00,
2013-01-03 11:39:00,10.5,-8.0,30.22,ENE,59,2.0,-999.0,44,-99.99,,,0.00,weatherlink.com 1.10,2013-01-03 18:39:00,
2013-01-03 11:53:00,12.6,-7.0,30.21,NNE,22,1.0,-999.0,41,-99.99,,,0.00,weatherlink.com 1.10,2013-01-03 18:53:00,
2013-01-03 12:09:00,13.7,-7.0,30.20,East,82,3.0,-999.0,40,-99.99,,,0.00,weatherlink.com 1.10,2013-01-03 19:09:00,
2013-01-03 12:53:00,16.3,-5.0,30.19,ENE,64,4.0,-999.0,38,-99.99,,,0.00,weatherlink.com 1.10,2013-01-03 19:53:00,
2013-01-03 13:09:00,16.2,-7.0,30.18,ENE,74,1.0,-999.0,36,-99.99,,,0.00,weatherlink.com 1.10,2013-01-03 20:09:00,
2013-01-03 13:23:00,17.0,-6.0,30.18,ENE,63,0.0,-999.0,36,-99.99,,,0.00,weatherlink.com 1.10,2013-01-03 20:23:00,
2013-01-03 13:39:00,18.1,-5.0,30.18,North,5,0.0,-999.0,36,-99.99,,,0.00,weatherlink.com 1.10,2013-01-03 20:39:00,
2013-01-03 13:57:00,19.1,-5.0,30.17,NE,49,1.0,-999.0,34,-99.99,,,0.00,weatherlink.com 1.10,2013-01-03 20:57:00,
2013-01-03 14:11:00,19.2,-4.0,30.17,NE,40,0.0,-999.0,35,-99.99,,,0.00,weatherlink.com 1.10,2013-01-03 21:11:00,
2013-01-03 14:27:00,19.2,-4.0,30.17,NE,46,0.0,-999.0,35,-99.99,,,0.00,weatherlink.com 1.10,2013-01-03 21:27:00,
2013-01-03 14:39:00,18.9,-5.0,30.17,NE,55,0.0,-999.0,35,-99.99,,,0.00,weatherlink.com 1.10,2013-01-03 21:39:00,
2013-01-03 14:53:00,18.0,-5.0,30.17,NNE,17,0.0,-999.0,36,-99.99,,,0.00,weatherlink.com 1.10,2013-01-03 21:53:00,
2013-01-03 15:09:00,16.0,-5.0,30.18,ENE,75,1.0,-999.0,39,-99.99,,,0.00,weatherlink.com 1.10,2013-01-03 22:09:00,
2013-01-03 15:23:00,15.8,-5.0,30.18,NNE,13,0.0,-999.0,39,-99.99,,,0.00,weatherlink.com 1.10,2013-01-03 22:23:00,
2013-01-03 15:43:00,14.7,-6.0,30.18,NNE,24,0.0,-999.0,40,-99.99,,,0.00,weatherlink.com 1.10,2013-01-03 22:43:00,
2013-01-03 15:53:00,14.1,-6.0,30.18,NNE,32,0.0,-999.0,41,-99.99,,,0.00,weatherlink.com 1.10,2013-01-03 22:53:00,
2013-01-03 16:09:00,12.8,-5.0,30.18,NNE,33,0.0,-999.0,44,-99.99,,,0.00,weatherlink.com 1.10,2013-01-03 23:09:00,
2013-01-03 16:25:00,10.6,-6.0,30.19,NNE,33,0.0,-999.0,48,-99.99,,,0.00,weatherlink.com 1.10,2013-01-03 23:25:00,
2013-01-03 16:39:00,8.9,-6.0,30.20,NNE,33,0.0,-999.0,50,-99.99,,,0.00,weatherlink.com 1.10,2013-01-03 23:39:00,
2013-01-03 16:55:00,7.4,-7.0,30.20,NNE,33,0.0,-999.0,53,-99.99,,,0.00,weatherlink.com 1.10,2013-01-03 23:55:00,
2013-01-03 17:09:00,6.1,-7.0,30.21,NNE,33,0.0,-999.0,54,-99.99,,,0.00,weatherlink.com 1.10,2013-01-04 00:09:00,
2013-01-03 17:25:00,3.7,-8.0,30.21,NNE,33,0.0,-999.0,58,-99.99,,,0.00,weatherlink.com 1.10,2013-01-04 00:25:00,
2013-01-03 17:41:00,1.5,-10.0,30.21,NNE,33,0.0,-999.0,60,-99.99,,,0.00,weatherlink.com 1.10,2013-01-04 00:41:00,
2013-01-03 17:53:00,0.3,-10.0,30.21,NNE,33,0.0,-999.0,63,-99.99,,,0.00,weatherlink.com 1.10,2013-01-04 00:53:00,
2013-01-03 18:09:00,-1.4,-11.0,30.22,NNE,33,0.0,-999.0,65,-99.99,,,0.00,weatherlink.com 1.10,2013-01-04 01:09:00,
2013-01-03 18:23:00,-2.4,-11.0,30.22,NNE,33,0.0,-999.0,67,-99.99,,,0.00,weatherlink.com 1.10,2013-01-04 01:23:00,
2013-01-03 18:41:00,-3.5,-11.0,30.23,NNE,33,0.0,-999.0,70,-99.99,,,0.00,weatherlink.com 1.10,2013-01-04 01:41:00,
2013-01-03 18:57:00,-4.5,-12.0,30.23,NNE,33,0.0,-999.0,70,-99.99,,,0.00,weatherlink.com 1.10,2013-01-04 01:57:00,
2013-01-03 19:13:00,-5.4,-13.0,30.23,NNE,33,0.0,-999.0,71,-99.99,,,0.00,weatherlink.com 1.10,2013-01-04 02:13:00,
2013-01-03 19:25:00,-6.0,-13.0,30.23,NNE,33,0.0,-999.0,73,-99.99,,,0.00,weatherlink.com 1.10,2013-01-04 02:25:00,
2013-01-03 19:39:00,-6.7,-13.0,30.22,NNE,33,0.0,-999.0,75,-99.99,,,0.00,weatherlink.com 1.10,2013-01-04 02:39:00,
2013-01-03 19:53:00,-6.7,-12.0,30.22,NNE,33,0.0,-999.0,76,-99.99,,,0.00,weatherlink.com 1.10,2013-01-04 02:53:00,
2013-01-03 20:13:00,-5.5,-12.0,30.22,NNE,26,0.0,-999.0,73,-99.99,,,0.00,weatherlink.com 1.10,2013-01-04 03:13:00,
2013-01-03 20:23:00,-5.1,-12.0,30.22,NNE,26,0.0,-999.0,72,-99.99,,,0.00,weatherlink.com 1.10,2013-01-04 03:23:00,
2013-01-03 20:41:00,0.5,-10.0,30.22,WSW,241,1.0,-999.0,62,-99.99,,,0.00,weatherlink.com 1.10,2013-01-04 03:41:00,
2013-01-03 20:53:00,2.4,-10.0,30.22,SW,217,0.0,-999.0,55,-99.99,,,0.00,weatherlink.com 1.10,2013-01-04 03:53:00,
2013-01-03 21:10:00,2.8,-11.0,30.22,SW,223,1.0,-999.0,53,-99.99,,,0.00,weatherlink.com 1.10,2013-01-04 04:10:00,
2013-01-03 21:24:00,0.3,-12.0,30.22,WSW,238,0.0,-999.0,56,-99.99,,,0.00,weatherlink.com 1.10,2013-01-04 04:24:00,
2013-01-03 21:40:00,-1.9,-13.0,30.22,WSW,238,0.0,-999.0,60,-99.99,,,0.00,weatherlink.com 1.10,2013-01-04 04:40:00,
2013-01-03 21:58:00,-3.3,-13.0,30.23,WSW,238,0.0,-999.0,62,-99.99,,,0.00,weatherlink.com 1.10,2013-01-04 04:58:00,
2013-01-03 22:25:00,-5.4,-14.0,30.22,WSW,238,0.0,-999.0,67,-99.99,,,0.00,weatherlink.com 1.10,2013-01-04 05:25:00,
2013-01-03 22:41:00,-7.0,-15.0,30.23,WSW,238,0.0,-999.0,69,-99.99,,,0.00,weatherlink.com 1.10,2013-01-04 05:41:00,
2013-01-03 22:53:00,-7.8,-14.0,30.23,WSW,238,0.0,-999.0,73,-99.99,,,0.00,weatherlink.com 1.10,2013-01-04 05:53:00,
2013-01-03 23:09:00,-8.3,-15.0,30.23,WSW,238,0.0,-999.0,74,-99.99,,,0.00,weatherlink.com 1.10,2013-01-04 06:09:00,
2013-01-03 23:23:00,-8.9,-15.0,30.23,WSW,238,0.0,-999.0,74,-99.99,,,0.00,weatherlink.com 1.10,2013-01-04 06:23:00,
2013-01-03 23:39:00,-10.0,-16.0,30.23,WSW,238,0.0,-999.0,75,-99.99,,,0.00,weatherlink.com 1.10,2013-01-04 06:39:00,
2013-01-03 23:57:00,-11.2,-17.0,30.23,WSW,238,0.0,-999.0,75,-99.99,,,0.00,weatherlink.com 1.10,2013-01-04 06:57:00,